Spaceway 2

operational
NORAD ID: 28903 Int'l Des: 2005-046 Owner: DTV Country: US
HEOCIRCULAR

关于 Spaceway 2

正在加载描述...

实时位置

正在加载3D地球...

即将过境

高度历史

Altitude vs Time

uPlot chart will show altitude changes over time

两行轨道根数

1 28903U 05046B 26063.15618102 -.00000197 00000-0 00000+0 0 9995
2 28903 5.2051 73.2323 0001023 50.2707 90.4822 0.99066278 50236
Epoch: Mar 4, 2026 • Age: 11 hours

当前状态

高度 36132.5 km
速度 3.06 km/s
星下点 -4.60°S, 5.48°W
发射日期 Nov 16, 2005
运行时间 20.2 years
类型 other

技术详情

分类 Payload
质量 6116.00 kg
干质量 3940.00 kg
总质量 6116.00 kg
长度 5.10 m
直径 3.30 m
跨度 40.90 m
形状 Box + 2 Pan
制造商 BOES
平台类型 BSS-702HP
阶段状态 In Orbit
所有者/国家 DTV/US

大型星座

Loading constellations...